FENGYUN 1C DEB

Satellite information

Favourite Embed

Satellite Type and Status

DEBRISIN ORBIT

Key statistics

Satellite FENGYUN 1C DEB at a glance.

Uptime

9715

Days in orbit

Revolutions

≈ 14.3

Per day

Orbit

SSO

Sun Synchronous Orbit

Inclination

98.4

Latest

Satellite identification and parameters

Extended collection of information and parameters for FENGYUN 1C DEB.

Object identification

Identified? True

Debris? True

Object name: FENGYUN 1C DEB

International designator: 1999-025ETB

Object number (NORAD): 38516

Object ID (CCSDS): 38516

Country: PEOPLES REPUBLIC OF CHINA (PRC)

Current information (Y/N): Y

RCS size: SMALL

Orbital parameters

Period: 100.415 minutes

Inclination: 98.4424 deg

SMA: 7156.373 km

Apoapsis: 858.004 km

Periapsis: 698.473 km

RAAN: 329.1639 deg

Eccentricy: 0.01114605

Argument of periapsis: 129.7908 deg

Mean anomaly: 231.3156 deg

Mean motion: 14.34046614 rev/day

Mean motion (dot): 0.00000429 rev/day2

B* drag term: 0.00015782354 1/REarth

Two-line elements (TLE)

Creation date: Dec. 11, 2025, 10:54 a.m.

Reference frame: TEME

Reference center: EARTH

Epoch: Dec. 11, 2025, 5:08 a.m. UTC

TLE line 0: 0 FENGYUN 1C DEB

TLE line 1: 1 38516U 99025ETB 25345.21422025 .00000429 00000-0 15782-3 0 9996

TLE line 2: 2 38516 98.4424 329.1639 0111460 129.7908 231.3156 14.34046614848518

Live tracking on map

Real-time ground track for satellite FENGYUN 1C DEB.

In-orbit conjunctions

A list of the most updated potential collisions computed for object FENGYUN 1C DEB.

Target Orbit TCA Probability of collision Miss distance Type
FENGYUN 1C DEB SSO 2025-11-15 04:02:50 0.0001435758 123.0 (m) DEBRIS
THOR ABLESTAR DEB LEO 2024-08-20 20:59:12 0.000188739 333.0 (m) DEBRIS

Associated space launch

Chinese polar orbiting meteorological satellite

FENGYUN 1C DEB was lifted into orbit during the mission ‘Long March 4B | Feng Yun 1C’, on board a Long March 4B space rocket.

The launch took place on May 10, 1999, 1:33 a.m. from Launch Complex 7.

For more information about the launch, click the button.

Launch to space Long March 4B | Feng Yun 1C
Long March 4B | Feng Yun 1C

Agency: N/A

Status: Launch Successful

Launch date: May 10, 1999, 1:33 a.m. UTC

Rocket: Long March 4B

Launch pad: Launch Complex 7

Location: Taiyuan Satellite Launch Center, People's Republic of China

...

Latest news about this satellite

There are no fresh news available about this satellite. Check back as we update our databases every day.


Newsletter sign-up

Weekly statistics, charts and insights to help you stay on top of the space industry.